| time (UTC) | temp C | wind direction | speed KPH | gust KPH | rain 1hr cm | rain 24hr cm | rain mn cm | humidity % | barometer mb |
| 20260504140534 | 17 | 102 | 3.2 | 12.9 | 0.00 | 0.00 | 0.00 | 53 | 1014.2 |
| 20260504110238 | 9 | 220 | 0.0 | 1.6 | 0.00 | 0.00 | 0.00 | 78 | 1015.2 |
| 20260504100536 | 7 | 258 | 0.0 | 1.6 | 0.00 | 0.00 | 0.00 | 76 | 1015.4 |
| 20260504081158 | 7 | 241 | 0.0 | 0.0 | 0.00 | 0.00 | 0.00 | 72 | 1015.4 |
| 20260504080635 | 7 | 241 | 0.0 | 0.0 | 0.00 | 0.00 | 0.00 | 71 | 1015.4 |
| 20260504080336 | 8 | 241 | 0.0 | 0.0 | 0.00 | 0.00 | 0.00 | 70 | 1015.2 |
| 20260504060113 | 10 | 267 | 1.6 | 4.8 | 0.00 | 0.00 | 0.00 | 64 | 1014.9 |
| 20260504050417 | 10 | 308 | 0.0 | 3.2 | 0.00 | 0.00 | 0.00 | 59 | 1015.0 |
| 20260504045913 | 10 | 295 | 0.0 | 3.2 | 0.00 | 0.00 | 0.00 | 58 | 1015.0 |
| 20260504045348 | 10 | 323 | 0.0 | 3.2 | 0.00 | 0.00 | 0.00 | 57 | 1015.1 |
| 20260504045041 | 10 | 314 | 0.0 | 4.8 | 0.00 | 0.00 | 0.00 | 56 | 1015.1 |
| 20260504044520 | 10 | 323 | 0.0 | 3.2 | 0.00 | 0.00 | 0.00 | 54 | 1015.1 |
| 20260504043727 | 10 | 296 | 0.0 | 3.2 | 0.00 | 0.00 | 0.00 | 54 | 1015.0 |
| 20260504043227 | 10 | 299 | 0.0 | 1.6 | 0.00 | 0.00 | 0.00 | 53 | 1014.9 |
| 20260504042658 | 10 | 307 | 0.0 | 0.0 | 0.00 | 0.00 | 0.00 | 53 | 1014.9 |
| 20260504042156 | 10 | 299 | 0.0 | 1.6 | 0.00 | 0.00 | 0.00 | 52 | 1014.9 |
| 20260504041643 | 10 | 299 | 0.0 | 1.6 | 0.00 | 0.00 | 0.00 | 52 | 1014.8 |
| 20260504041125 | 10 | 299 | 0.0 | 1.6 | 0.00 | 0.00 | 0.00 | 51 | 1014.8 |
| 20260504040621 | 10 | 298 | 0.0 | 1.6 | 0.00 | 0.00 | 0.00 | 51 | 1014.8 |
| 20260504040118 | 10 | 298 | 0.0 | 1.6 | 0.00 | 0.00 | 0.00 | 51 | 1014.8 |
| 20260504035556 | 10 | 298 | 0.0 | 1.6 | 0.00 | 0.00 | 0.00 | 51 | 1014.7 |
| 20260504035042 | 10 | 300 | 0.0 | 1.6 | 0.00 | 0.00 | 0.00 | 51 | 1014.6 |
| 20260504034807 | 10 | 299 | 0.0 | 1.6 | 0.00 | 0.00 | 0.00 | 51 | 1014.6 |
| 20260504034301 | 10 | 300 | 0.0 | 1.6 | 0.00 | 0.00 | 0.00 | 51 | 1014.6 |
| 20260504033513 | 10 | 300 | 0.0 | 1.6 | 0.00 | 0.00 | 0.00 | 51 | 1014.7 |
| 20260504033002 | 10 | 300 | 0.0 | 1.6 | 0.00 | 0.00 | 0.00 | 51 | 1014.6 |
| 20260504032727 | 10 | 300 | 0.0 | 1.6 | 0.00 | 0.00 | 0.00 | 50 | 1014.7 |
| 20260504031958 | 10 | 300 | 0.0 | 1.6 | 0.00 | 0.00 | 0.00 | 50 | 1014.6 |
| 20260504031725 | 10 | 300 | 0.0 | 1.6 | 0.00 | 0.00 | 0.00 | 50 | 1014.6 |
| 20260504031416 | 10 | 300 | 0.0 | 1.6 | 0.00 | 0.00 | 0.00 | 50 | 1014.6 |
| 20260504030426 | 10 | 295 | 0.0 | 1.6 | 0.00 | 0.00 | 0.00 | 50 | 1014.5 |
| 20260504025901 | 10 | 295 | 0.0 | 1.6 | 0.00 | 0.00 | 0.00 | 50 | 1014.6 |
| 20260504025333 | 10 | 295 | 0.0 | 1.6 | 0.00 | 0.00 | 0.00 | 49 | 1014.6 |
| 20260504024832 | 10 | 295 | 0.0 | 1.6 | 0.00 | 0.00 | 0.00 | 49 | 1014.6 |
| 20260504024306 | 10 | 295 | 0.0 | 1.6 | 0.00 | 0.00 | 0.00 | 49 | 1014.6 |
| 20260504023736 | 11 | 295 | 0.0 | 4.8 | 0.00 | 0.00 | 0.00 | 49 | 1014.6 |
| 20260504023235 | 11 | 295 | 0.0 | 4.8 | 0.00 | 0.00 | 0.00 | 48 | 1014.6 |
| 20260504022707 | 11 | 283 | 0.0 | 1.6 | 0.00 | 0.00 | 0.00 | 48 | 1014.6 |
| 20260504022203 | 11 | 283 | 0.0 | 1.6 | 0.00 | 0.00 | 0.00 | 49 | 1014.6 |
| 20260504021640 | 11 | 283 | 0.0 | 1.6 | 0.00 | 0.00 | 0.00 | 49 | 1014.6 |
| 20260504021124 | 11 | 283 | 0.0 | 1.6 | 0.00 | 0.00 | 0.00 | 48 | 1014.6 |
| 20260504020626 | 11 | 283 | 0.0 | 1.6 | 0.00 | 0.00 | 0.00 | 48 | 1014.7 |
| 20260504020107 | 11 | 283 | 0.0 | 1.6 | 0.00 | 0.00 | 0.00 | 49 | 1014.6 |
| 20260504015820 | 11 | 283 | 0.0 | 1.6 | 0.00 | 0.00 | 0.00 | 49 | 1014.6 |
| 20260504015027 | 11 | 283 | 0.0 | 1.6 | 0.00 | 0.00 | 0.00 | 49 | 1014.6 |
| 20260504014508 | 11 | 283 | 0.0 | 1.6 | 0.00 | 0.00 | 0.00 | 49 | 1014.5 |
| 20260504014226 | 10 | 283 | 0.0 | 1.6 | 0.00 | 0.00 | 0.00 | 50 | 1014.5 |
| 20260504013501 | 10 | 283 | 0.0 | 1.6 | 0.00 | 0.00 | 0.00 | 50 | 1014.5 |
| 20260504012942 | 11 | 283 | 0.0 | 1.6 | 0.00 | 0.00 | 0.00 | 50 | 1014.5 |
| 20260504012423 | 11 | 284 | 0.0 | 0.0 | 0.00 | 0.00 | 0.00 | 50 | 1014.4 |
| 20260504011911 | 11 | 284 | 0.0 | 0.0 | 0.00 | 0.00 | 0.00 | 49 | 1014.3 |
| 20260504011409 | 11 | 284 | 0.0 | 1.6 | 0.00 | 0.00 | 0.00 | 48 | 1014.3 |
| 20260504011135 | 11 | 284 | 0.0 | 1.6 | 0.00 | 0.00 | 0.00 | 48 | 1014.2 |
| 20260504010405 | 11 | 284 | 0.0 | 1.6 | 0.00 | 0.00 | 0.00 | 47 | 1014.1 |
| 20260504005844 | 11 | 284 | 0.0 | 1.6 | 0.00 | 0.00 | 0.00 | 46 | 1014.1 |
| 20260504005321 | 12 | 284 | 0.0 | 0.0 | 0.00 | 0.00 | 0.00 | 45 | 1014.0 |
| 20260504005028 | 12 | 284 | 0.0 | 0.0 | 0.00 | 0.00 | 0.00 | 44 | 1013.9 |
| 20260504004245 | 12 | 284 | 0.0 | 0.0 | 0.00 | 0.00 | 0.00 | 44 | 1013.9 |
| 20260504003730 | 12 | 284 | 0.0 | 1.6 | 0.00 | 0.00 | 0.00 | 43 | 1013.7 |
| 20260504003204 | 12 | 284 | 0.0 | 1.6 | 0.00 | 0.00 | 0.00 | 42 | 1013.6 |
| 20260504003143 | 13 | 284 | 0.0 | 1.6 | 0.00 | 0.00 | 0.00 | 41 | 1013.6 |
| 20260504002131 | 13 | 284 | 0.0 | 1.6 | 0.00 | 0.00 | 0.00 | 40 | 1013.5 |
| 20260504001632 | 13 | 284 | 0.0 | 1.6 | 0.00 | 0.00 | 0.00 | 39 | 1013.4 |
| 20260504001355 | 13 | 284 | 0.0 | 1.6 | 0.00 | 0.00 | 0.00 | 38 | 1013.3 |
| 20260504000620 | 13 | 284 | 0.0 | 3.2 | 0.00 | 0.00 | 0.00 | 37 | 1013.4 |
| 20260504000120 | 14 | 284 | 0.0 | 3.2 | 0.00 | 0.00 | 0.00 | 37 | 1013.3 |
| 20260503235557 | 14 | 284 | 1.6 | 9.7 | 0.00 | 0.00 | 0.00 | 36 | 1013.3 |
| 20260503235040 | 14 | 328 | 1.6 | 9.7 | 0.00 | 0.00 | 0.00 | 35 | 1013.2 |
| 20260503234515 | 14 | 250 | 0.0 | 8.0 | 0.00 | 0.00 | 0.00 | 35 | 1013.3 |
| 20260503234012 | 15 | 282 | 0.0 | 4.8 | 0.00 | 0.00 | 0.00 | 35 | 1013.2 |
| 20260503233717 | 15 | 303 | 0.0 | 3.2 | 0.00 | 0.00 | 0.00 | 34 | 1013.1 |
| 20260503232947 | 15 | 279 | 1.6 | 3.2 | 0.00 | 0.00 | 0.00 | 34 | 1013.1 |
| 20260503232408 | 15 | 287 | 1.6 | 9.7 | 0.00 | 0.00 | 0.00 | 33 | 1013.1 |
| 20260503231906 | 15 | 309 | 3.2 | 9.7 | 0.00 | 0.00 | 0.00 | 33 | 1013.0 |
| 20260503231403 | 16 | 283 | 3.2 | 8.0 | 0.00 | 0.00 | 0.00 | 32 | 1013.0 |
| 20260503231345 | 16 | 301 | 3.2 | 12.9 | 0.00 | 0.00 | 0.00 | 31 | 1013.0 |
| 20260503230625 | 16 | 333 | 3.2 | 12.9 | 0.00 | 0.00 | 0.00 | 31 | 1012.9 |
| 20260503225831 | 16 | 233 | 3.2 | 11.3 | 0.00 | 0.00 | 0.00 | 31 | 1012.9 |
| 20260503225300 | 16 | 329 | 1.6 | 11.3 | 0.00 | 0.00 | 0.00 | 32 | 1012.9 |
| 20260503224736 | 16 | 295 | 3.2 | 11.3 | 0.00 | 0.00 | 0.00 | 32 | 1013.0 |
| 20260503224228 | 16 | 297 | 4.8 | 12.9 | 0.00 | 0.00 | 0.00 | 31 | 1012.9 |
| 20260503223726 | 15 | 330 | 6.4 | 19.3 | 0.00 | 0.00 | 0.00 | 31 | 1012.9 |
| 20260503223220 | 16 | 216 | 6.4 | 19.3 | 0.00 | 0.00 | 0.00 | 31 | 1012.9 |
| 20260503222719 | 16 | 248 | 6.4 | 16.1 | 0.00 | 0.00 | 0.00 | 30 | 1013.0 |
| 20260503222431 | 16 | 284 | 4.8 | 17.7 | 0.00 | 0.00 | 0.00 | 30 | 1013.0 |
| 20260503221708 | 16 | 278 | 4.8 | 17.7 | 0.00 | 0.00 | 0.00 | 30 | 1012.9 |
| 20260503221141 | 16 | 293 | 6.4 | 22.5 | 0.00 | 0.00 | 0.00 | 31 | 1013.0 |
| 20260503220616 | 16 | 307 | 6.4 | 22.5 | 0.00 | 0.00 | 0.00 | 31 | 1012.9 |
| 20260503220104 | 16 | 293 | 4.8 | 17.7 | 0.00 | 0.00 | 0.00 | 30 | 1013.0 |
| 20260503215521 | 16 | 305 | 6.4 | 17.7 | 0.00 | 0.00 | 0.00 | 30 | 1012.9 |
| 20260503215020 | 16 | 290 | 6.4 | 22.5 | 0.00 | 0.00 | 0.00 | 30 | 1013.1 |
| 20260503214508 | 16 | 330 | 6.4 | 22.5 | 0.00 | 0.00 | 0.00 | 30 | 1013.0 |
| 20260503214010 | 16 | 223 | 6.4 | 11.3 | 0.00 | 0.00 | 0.00 | 30 | 1013.0 |
| 20260503213704 | 16 | 345 | 6.4 | 19.3 | 0.00 | 0.00 | 0.00 | 29 | 1013.0 |
| 20260503213209 | 16 | 295 | 4.8 | 16.1 | 0.00 | 0.00 | 0.00 | 29 | 1013.0 |
| 20260503212415 | 16 | 300 | 6.4 | 12.9 | 0.00 | 0.00 | 0.00 | 30 | 1013.0 |
| 20260503211905 | 16 | 307 | 8.0 | 17.7 | 0.00 | 0.00 | 0.00 | 30 | 1013.0 |
| 20260503211404 | 16 | 302 | 6.4 | 16.1 | 0.00 | 0.00 | 0.00 | 30 | 1012.9 |
| 20260503210840 | 16 | 278 | 4.8 | 17.7 | 0.00 | 0.00 | 0.00 | 31 | 1012.9 |
| 20260503210310 | 16 | 274 | 4.8 | 16.1 | 0.00 | 0.00 | 0.00 | 30 | 1013.0 |
| 20260503205807 | 16 | 318 | 4.8 | 16.1 | 0.00 | 0.00 | 0.00 | 32 | 1013.0 |
| 20260503205241 | 16 | 311 | 6.4 | 17.7 | 0.00 | 0.00 | 0.00 | 32 | 1013.0 |
| 20260503204738 | 16 | 258 | 8.0 | 17.7 | 0.00 | 0.00 | 0.00 | 32 | 1013.0 |
| 20260503204210 | 16 | 158 | 6.4 | 24.1 | 0.00 | 0.00 | 0.00 | 31 | 1013.0 |
| 20260503203708 | 15 | 252 | 6.4 | 24.1 | 0.00 | 0.00 | 0.00 | 32 | 1013.1 |
| 20260503203423 | 15 | 248 | 8.0 | 29.0 | 0.00 | 0.00 | 0.00 | 32 | 1013.0 |
| 20260503202656 | 15 | 293 | 8.0 | 29.0 | 0.00 | 0.00 | 0.00 | 32 | 1013.2 |
| 20260503202426 | 15 | 312 | 8.0 | 22.5 | 0.00 | 0.00 | 0.00 | 32 | 1013.2 |
| 20260503201626 | 15 | 292 | 9.7 | 22.5 | 0.00 | 0.00 | 0.00 | 32 | 1013.3 |
| 20260503201349 | 15 | 282 | 8.0 | 25.7 | 0.00 | 0.00 | 0.00 | 32 | 1013.4 |
| 20260503200555 | 15 | 262 | 6.4 | 20.9 | 0.00 | 0.00 | 0.00 | 32 | 1013.3 |
| 20260503195522 | 15 | 288 | 8.0 | 22.5 | 0.00 | 0.00 | 0.00 | 33 | 1013.4 |
| 20260503194958 | 15 | 338 | 8.0 | 20.9 | 0.00 | 0.00 | 0.00 | 33 | 1013.4 |
| 20260503194432 | 15 | 266 | 8.0 | 20.9 | 0.00 | 0.00 | 0.00 | 32 | 1013.5 |
| 20260503193903 | 15 | 274 | 6.4 | 20.9 | 0.00 | 0.00 | 0.00 | 33 | 1013.4 |
| 20260503193400 | 15 | 329 | 4.8 | 20.9 | 0.00 | 0.00 | 0.00 | 33 | 1013.5 |
| 20260503193347 | 14 | 287 | 8.0 | 22.5 | 0.00 | 0.00 | 0.00 | 35 | 1013.5 |
| 20260503192330 | 15 | 245 | 8.0 | 22.5 | 0.00 | 0.00 | 0.00 | 34 | 1013.7 |
| 20260503191828 | 15 | 15 | 6.4 | 17.7 | 0.00 | 0.00 | 0.00 | 33 | 1013.7 |
| 20260503191259 | 15 | 297 | 6.4 | 16.1 | 0.00 | 0.00 | 0.00 | 34 | 1013.7 |
| 20260503191019 | 15 | 287 | 6.4 | 17.7 | 0.00 | 0.00 | 0.00 | 35 | 1013.7 |
| 20260503190234 | 14 | 323 | 6.4 | 20.9 | 0.00 | 0.00 | 0.00 | 35 | 1013.6 |
| 20260503185938 | 14 | 231 | 8.0 | 20.9 | 0.00 | 0.00 | 0.00 | 34 | 1013.9 |
| 20260503185202 | 14 | 295 | 8.0 | 25.7 | 0.00 | 0.00 | 0.00 | 34 | 1014.0 |
| 20260503184658 | 14 | 292 | 8.0 | 25.7 | 0.00 | 0.00 | 0.00 | 32 | 1013.9 |
| 20260503184157 | 14 | 288 | 8.0 | 20.9 | 0.00 | 0.00 | 0.00 | 34 | 1013.9 |
| 20260503183628 | 14 | 288 | 8.0 | 20.9 | 0.00 | 0.00 | 0.00 | 32 | 1014.0 |
| 20260503183347 | 14 | 298 | 8.0 | 22.5 | 0.00 | 0.00 | 0.00 | 33 | 1014.1 |
| 20260503182602 | 14 | 262 | 8.0 | 22.5 | 0.00 | 0.00 | 0.00 | 33 | 1014.0 |
| 20260503182033 | 14 | 354 | 8.0 | 20.9 | 0.00 | 0.00 | 0.00 | 33 | 1014.0 |
| 20260503181534 | 14 | 302 | 8.0 | 22.5 | 0.00 | 0.00 | 0.00 | 33 | 1014.1 |
| 20260503181008 | 14 | 278 | 8.0 | 22.5 | 0.00 | 0.00 | 0.00 | 32 | 1014.1 |
| 20260503180440 | 14 | 299 | 6.4 | 22.5 | 0.00 | 0.00 | 0.00 | 33 | 1014.2 |
| 20260503175940 | 14 | 321 | 6.4 | 22.5 | 0.00 | 0.00 | 0.00 | 32 | 1014.1 |
| 20260503175427 | 13 | 323 | 6.4 | 17.7 | 0.00 | 0.00 | 0.00 | 34 | 1014.1 |
| 20260503175123 | 13 | 309 | 6.4 | 17.7 | 0.00 | 0.00 | 0.00 | 35 | 1014.1 |
| 20260503174618 | 13 | 326 | 8.0 | 20.9 | 0.00 | 0.00 | 0.00 | 36 | 1014.2 |
| 20260503173849 | 13 | 295 | 8.0 | 20.9 | 0.00 | 0.00 | 0.00 | 35 | 1014.4 |
| 20260503173616 | 13 | 311 | 4.8 | 19.3 | 0.00 | 0.00 | 0.00 | 34 | 1014.4 |
| 20260503172833 | 13 | 328 | 6.4 | 19.3 | 0.00 | 0.00 | 0.00 | 38 | 1014.4 |
| 20260503172314 | 12 | 312 | 6.4 | 20.9 | 0.00 | 0.00 | 0.00 | 38 | 1014.5 |
| 20260503171748 | 12 | 211 | 6.4 | 20.9 | 0.00 | 0.00 | 0.00 | 36 | 1014.4 |
| 20260503171234 | 13 | 304 | 8.0 | 43.5 | 0.00 | 0.00 | 0.00 | 35 | 1014.5 |
| 20260503170712 | 13 | 297 | 6.4 | 43.5 | 0.00 | 0.00 | 0.00 | 36 | 1014.4 |
| 20260503170203 | 13 | 291 | 4.8 | 14.5 | 0.00 | 0.00 | 0.00 | 37 | 1014.4 |
| 20260503150207 | 10 | 296 | 6.4 | 20.9 | 0.00 | 0.00 | 0.00 | 45 | 1014.9 |